Location: Cicognara
(44.9500°N, 10.4667°E)
Time: 15:32:54
(UTC+00:00)

ATLAS CENTAUR R/B - Pass Details

Date: 20 June 2021
Orbit: 472 x 671 km, 64.6° (Epoch: 13 June)

Event Time Altitude Azimuth Distance (km) Brightness Sun altitude
Rises 20:07:57 0° 328° (NNW) 2,783 6.9 -8.8°
Reaches altitude 10° 20:10:11 10° 333° (NNW) 1,915 5.5 -9.1°
Maximum altitude 20:14:25 51° 50° (NE) 769 2.0 -9.6°
Enters shadow 20:18:22 13° 125° (SE) 1,822 3.3 -10.1°
